Regional Weather Roundup
Issued by NWS Sioux Falls, SD

Home | Current Version | Previous Version | Text Only | Print | Product List | Glossary Off
Versions: 1 2 3 4 5 6 7 8 9 10 11 12 13 14 15 16 17 18 19 20 21 22 23 24 25 26 27 28 29 30 31 32 33 34 35 36 37 38 39 40 41 42 43 44 45 46 47 48 49 50

000
ASUS43 KFSD 011202
RWRFSD

WEATHER ROUNDUP FOR SE SOUTH DAKOTA/SW MINNESOTA/NW IOWA
NATIONAL WEATHER SERVICE SIOUX FALLS SD
600 AM CST SUN FEB 01 2015

NOTE: "FAIR" INDICATES FEW OR NO CLOUDS BELOW 12,000 FEET WITH NO
SIGNIFICANT WEATHER AND OR OBSTRUCTIONS TO VISIBILITY.


SDZ038>040-050-052>070-011300-
SOUTHEAST SOUTH DAKOTA

CITY           SKY/WX    TMP DP  RH WIND       PRES   REMARKS
CHAMBERLAIN    NOT AVBL
HURON          LGT SNOW   1  -4  79 N24G30    30.30R WCI -22
6HR MIN TEMP:   1; 6HR MAX TEMP:  12; 6HR PCP: TRACE;

MADISON        HVY RAIN   5   5 100 N23G35    30.14R VSB 1   WCI -17
MITCHELL       LGT SNOW   4   0  83 N23G29    30.25R VSB 3/4 WCI -18
6HR MIN TEMP:   4; 6HR MAX TEMP:  16; 6HR PCP: TRACE;

SIOUX FALLS    LGT SNOW  10   6  84 N22G31    30.10R VSB 3/4 WCI -10
6HR MIN TEMP:  10; 6HR MAX TEMP:  23; 6HR PCP:  0.04;

WINNER         LGT SNOW   5   0  79 N14       30.27R VSB 1   WCI -12
YANKTON        CLOUDY   N/A N/A N/A N26       30.12R
$$

MNZ071-072-080-081-089-090-097-098-011300-
SOUTHWEST MINNESOTA

CITY           SKY/WX    TMP DP  RH WIND       PRES   REMARKS
FAIRMONT       CLOUDY    18  12  79 N17       30.03R WCI   2
JACKSON        LGT SNOW  18  14  86 N24G32    30.04R WCI   0
LUVERNE        LGT SNOW  18  12  79 N17G28    30.08R WCI   2
MARSHALL       CLOUDY    12   7  79 N20G28    30.19R WCI  -6
6HR MIN TEMP:  12; 6HR MAX TEMP:  21;

MONTEVIDEO     CLOUDY    10   3  72 NE16G24   30.25R WCI  -7
PIPESTONE      LGT SNOW  10   9  92 NE17G24   30.09R WCI  -7
REDWOOD FALLS  LGT SNOW  14   9  80 N10G24    30.17R WCI   1
TRACY          LGT SNOW  14  11  89 N21G26    30.14R WCI  -4
WINDOM         LGT SNOW  14  12  92 N26G33    30.07R WCI  -6
WORTHINGTON    CLOUDY    27   9  46 N24G31    30.05R WCI  12
$$

IAZ001>003-012>014-020>022-031-032-NEZ013-014-SDZ071-011300-
NORTHWEST IOWA

CITY           SKY/WX    TMP DP  RH WIND       PRES   REMARKS
SIOUX CITY     LGT SNOW  22  18  85 N20G29    29.98R VSB 1   WCI   7
6HR MIN TEMP:  22; 6HR MAX TEMP:  30; 6HR PCP:  0.08;

SPENCER        LGT SNOW  18  14  84 NE30G38   29.99R FOG     WCI  -1
6HR MIN TEMP:  18; 6HR MAX TEMP:  25; 6HR PCP: TRACE;

$$

ABBREVIATIONS USED IN REMARKS
   TC - TEMPERATURE IN CELSIUS
  WCI - WIND CHILL INDEX
   HX - HEAT INDEX
  VSB - VISIBILITY



USA.gov is the U.S. government's official web portal to all federal, state and local government web resources and services.